Whiteville, NC

2:24 AM EDT on September 23, 2017 (GMT -0400)
Columbus County Municipal

Weather History for KCPC - November, 2013

Change the Weather History Date:

Tuesday, November 5, 2013

  Actual Average (KCRE) Record (KCRE)
Temperature  
Mean Temperature 54 °F -  
Max Temperature 66 °F 66 °F 80 °F (2003)
Min Temperature 41 °F 47 °F 32 °F (1952)
Degree Days  
Heating Degree Days 12    
Growing Degree Days 4 (Base 50)    
Moisture  
Dew Point 47 °F    
Average Humidity 83    
Maximum Humidity 95    
Minimum Humidity 65    
Precipitation  
Precipitation 0.00 in - - ()
Sea Level Pressure  
Sea Level Pressure 30.42 in    
Wind  
Wind Speed 4 mph (NNE)    
Max Wind Speed 8 mph    
Max Gust Speed -    
Visibility 10 miles    
Events      
Averages and records for this station are not official NWS values.
T = Trace of Precipitation, MM = Missing Value Source: NWS Daily Summary

Daily Weather History Graph

Daily Weather History Graph

Search for Another Location

Airport or City:

Trip Planner

Search our weather history database for the weather conditions in past years. The results will help you decide how hot, cold, wet, or windy it might be!

Date:

Astronomy

Nov. 05, 2013 Rise Set
Actual Time 6:38 AM EST 5:17 PM EST
Civil Twilight 6:12 AM EST 5:43 PM EST
Nautical Twilight 5:42 AM EST 6:13 PM EST
Astronomical Twilight 5:13 AM EST 6:43 PM EST
Moon 8:48 AM EST (11/5) 7:21 PM EST (11/5)
Length of Visible Light 11h 31m
Length of Day
10h 39m
Waxing Crescent, 6% of the Moon is Illuminated
Nov 5
Waxing Crescent
Nov 10
First Quarter
Nov 17
Full
Nov 25
Last Quarter
Dec 2
New

Hourly Weather History & Observations

Time (EST) Temp. Windchill Dew Point Humidity Pressure Visibility Wind Dir Wind Speed Gust Speed Precip Events Conditions
12:15 AM 42.4 °F 39.6 °F 36.1 °F 78% 30.46 in 10.0 mi NNE 4.6 mph - N/A   Clear
12:35 AM 42.4 °F 39.6 °F 36.5 °F 79% 30.45 in 10.0 mi NNE 4.6 mph - N/A   Clear
12:55 AM 42.1 °F 40.2 °F 37.0 °F 82% 30.45 in 10.0 mi NNE 3.5 mph - N/A   Clear
1:15 AM 42.1 °F 40.2 °F 37.0 °F 82% 30.45 in 10.0 mi North 3.5 mph - N/A   Clear
1:35 AM 41.7 °F 39.8 °F 37.0 °F 83% 30.46 in 10.0 mi North 3.5 mph - N/A   Clear
1:55 AM 41.5 °F 39.6 °F 37.0 °F 84% 30.44 in 10.0 mi North 3.5 mph - N/A   Clear
2:15 AM 41.0 °F 39.0 °F 37.0 °F 86% 30.44 in 10.0 mi NNE 3.5 mph - N/A   Clear
2:35 AM 41.0 °F 39.0 °F 37.0 °F 86% 30.43 in 10.0 mi North 3.5 mph - N/A   Clear
2:55 AM 41.0 °F 38.0 °F 37.4 °F 87% 30.43 in 10.0 mi North 4.6 mph - N/A   Clear
3:15 AM 41.4 °F 38.4 °F 37.4 °F 86% 30.43 in 10.0 mi North 4.6 mph - N/A   Clear
3:35 AM 41.4 °F 37.6 °F 37.8 °F 87% 30.43 in 10.0 mi North 5.8 mph - N/A   Clear
3:55 AM 41.9 °F 40.0 °F 37.9 °F 86% 30.42 in 10.0 mi NNE 3.5 mph - N/A   Clear
4:15 AM 41.9 °F 40.0 °F 38.3 °F 87% 30.42 in 10.0 mi NNE 3.5 mph - N/A   Clear
4:35 AM 41.4 °F 39.4 °F 38.3 °F 89% 30.43 in 10.0 mi North 3.5 mph - N/A   Clear
4:55 AM 41.5 °F 39.6 °F 38.3 °F 88% 30.43 in 10.0 mi NNE 3.5 mph - N/A   Clear
5:15 AM 41.9 °F 39.0 °F 38.5 °F 88% 30.42 in 10.0 mi North 4.6 mph - N/A   Scattered Clouds
5:35 AM 42.4 °F 39.6 °F 38.8 °F 87% 30.43 in 10.0 mi NNE 4.6 mph - N/A   Scattered Clouds
5:55 AM 42.8 °F 40.1 °F 39.2 °F 87% 30.43 in 10.0 mi NNE 4.6 mph - N/A   Mostly Cloudy
6:15 AM 43.0 °F 41.3 °F 39.2 °F 86% 30.44 in 10.0 mi NNE 3.5 mph - N/A   Mostly Cloudy
6:35 AM 42.6 °F 40.9 °F 39.2 °F 88% 30.44 in 10.0 mi North 3.5 mph - N/A   Scattered Clouds
6:55 AM 43.0 °F 39.5 °F 39.4 °F 87% 30.45 in 10.0 mi North 5.8 mph - N/A   Mostly Cloudy
7:15 AM 43.2 °F 39.7 °F 39.6 °F 87% 30.45 in 10.0 mi North 5.8 mph - N/A   Mostly Cloudy
7:35 AM 44.4 °F 42.9 °F 40.3 °F 85% 30.46 in 10.0 mi North 3.5 mph - N/A   Overcast
7:55 AM 45.1 °F 42.8 °F 40.6 °F 84% 30.46 in 10.0 mi North 4.6 mph - N/A   Overcast
8:15 AM 45.9 °F 43.6 °F 41.4 °F 84% 30.47 in 10.0 mi NNE 4.6 mph - N/A   Overcast
8:35 AM 46.4 °F 43.5 °F 43.0 °F 88% 30.47 in 4.0 mi North 5.8 mph - N/A   Drizzle
8:55 AM 46.9 °F - 45.1 °F 93% 30.46 in 2.0 mi North 5.8 mph - N/A   Drizzle
9:15 AM 48.4 °F - 46.9 °F 95% 30.46 in 3.0 mi North 5.8 mph - N/A   Drizzle
9:35 AM 49.6 °F - 48.2 °F 95% 30.46 in 3.0 mi North 4.6 mph - N/A   Heavy Drizzle
9:55 AM 51.3 °F - 49.6 °F 94% 30.46 in 5.0 mi NNE 6.9 mph - N/A   Light Drizzle
10:15 AM 51.8 °F - 49.8 °F 93% 30.46 in 7.0 mi NNE 5.8 mph - N/A   Overcast
10:35 AM 52.9 °F - 50.7 °F 92% 30.46 in 10.0 mi NE 6.9 mph - N/A   Overcast
10:55 AM 53.4 °F - 51.1 °F 92% 30.45 in 7.0 mi NNE 5.8 mph - N/A   Overcast
11:15 AM 55.6 °F - 52.5 °F 89% 30.44 in 10.0 mi NE 4.6 mph - N/A   Overcast
11:35 AM 57.7 °F - 53.4 °F 85% 30.43 in 10.0 mi NE 8.1 mph - N/A   Overcast
11:55 AM 59.0 °F - 53.6 °F 82% 30.42 in 10.0 mi North 5.8 mph - N/A   Mostly Cloudy
12:15 PM 61.7 °F - 54.5 °F 77% 30.41 in 10.0 mi NNE 4.6 mph - N/A   Overcast
12:35 PM 59.9 °F - 53.6 °F 80% 30.40 in 10.0 mi North 4.6 mph - N/A   Overcast
12:55 PM 60.3 °F - 53.8 °F 79% 30.40 in 10.0 mi NNE 4.6 mph - N/A   Overcast
1:15 PM 61.2 °F - 54.0 °F 77% 30.40 in 10.0 mi North 4.6 mph - N/A   Overcast
1:35 PM 61.9 °F - 53.6 °F 74% 30.39 in 10.0 mi NNE 4.6 mph - N/A   Overcast
1:55 PM 61.9 °F - 52.9 °F 72% 30.39 in 10.0 mi NNE 4.6 mph - N/A   Overcast
2:15 PM 63.9 °F - 53.1 °F 68% 30.39 in 10.0 mi NNE 5.8 mph - N/A   Mostly Cloudy
2:35 PM 63.7 °F - 53.2 °F 69% 30.38 in 10.0 mi Calm Calm - N/A   Mostly Cloudy
2:55 PM 65.8 °F - 54.0 °F 65% 30.37 in 10.0 mi North 4.6 mph - N/A   Mostly Cloudy
3:15 PM 65.5 °F - 53.6 °F 65% 30.37 in 10.0 mi NNE 4.6 mph - N/A   Scattered Clouds
3:35 PM 66.2 °F - 54.3 °F 65% 30.37 in 10.0 mi NNE 5.8 mph - N/A   Clear
3:55 PM 66.2 °F - 54.7 °F 66% 30.37 in 10.0 mi North 5.8 mph - N/A   Clear
4:15 PM 65.5 °F - 54.3 °F 67% 30.38 in 10.0 mi North 3.5 mph - N/A   Clear
4:35 PM 63.9 °F - 54.0 °F 70% 30.38 in 10.0 mi North 3.5 mph - N/A   Clear
4:55 PM 62.2 °F - 54.0 °F 74% 30.38 in 10.0 mi North 4.6 mph - N/A   Clear
5:15 PM 61.0 °F - 53.2 °F 76% 30.38 in 10.0 mi North 3.5 mph - N/A   Clear
5:35 PM 59.9 °F - 53.2 °F 79% 30.39 in 10.0 mi Calm Calm - N/A   Clear
5:55 PM 59.7 °F - 53.1 °F 79% 30.39 in 10.0 mi North 3.5 mph - N/A   Clear
6:15 PM 59.0 °F - 52.9 °F 80% 30.39 in 10.0 mi Calm Calm - N/A   Clear
6:35 PM 59.2 °F - 52.7 °F 79% 30.40 in 10.0 mi NNE 4.6 mph - N/A   Clear
6:55 PM 58.8 °F - 52.3 °F 79% 30.40 in 10.0 mi Calm Calm - N/A   Clear
7:15 PM 58.1 °F - 52.3 °F 81% 30.40 in 10.0 mi NNE 3.5 mph - N/A   Clear
7:35 PM 57.7 °F - 52.2 °F 82% 30.40 in 10.0 mi North 3.5 mph - N/A   Clear
7:55 PM 57.4 °F - 51.8 °F 82% 30.41 in 10.0 mi NE 3.5 mph - N/A   Clear
8:15 PM 56.8 °F - 51.8 °F 83% 30.40 in 10.0 mi NE 4.6 mph - N/A   Scattered Clouds
8:35 PM 56.5 °F - 51.4 °F 83% 30.40 in 10.0 mi North 3.5 mph - N/A   Clear
8:55 PM 55.9 °F - 51.1 °F 84% 30.41 in 10.0 mi NNE 3.5 mph - N/A   Clear
9:15 PM 55.4 °F - 50.9 °F 85% 30.40 in 10.0 mi NNE 3.5 mph - N/A   Clear
9:35 PM 55.0 °F - 50.9 °F 86% 30.40 in 10.0 mi Calm Calm - N/A   Clear
9:55 PM 54.1 °F - 50.9 °F 89% 30.39 in 10.0 mi North 3.5 mph - N/A   Clear
10:15 PM 54.9 °F - 51.1 °F 87% 30.39 in 10.0 mi North 3.5 mph - N/A   Clear
10:35 PM 54.1 °F - 50.9 °F 89% 30.39 in 10.0 mi North 3.5 mph - N/A   Clear
10:55 PM 53.6 °F - 50.9 °F 91% 30.39 in 10.0 mi Calm Calm - N/A   Clear
11:15 PM 53.4 °F - 50.9 °F 91% 30.38 in 10.0 mi Calm Calm - N/A   Clear
11:35 PM 52.3 °F - 50.0 °F 92% 30.38 in 10.0 mi Calm Calm - N/A   Clear
11:55 PM 52.2 °F - 50.5 °F 94% 30.37 in 10.0 mi Calm Calm - N/A   Clear